| DS18B20 | SHTC3 | PZEM-004T | WiFi | ||||||||
|---|---|---|---|---|---|---|---|---|---|---|---|
| ID | Date d/m/Y & Time | data1 สูง | data2 ต่ำ | data3 นอก | temp pcb | hum pcb | Volt | Amp | Watt | rssi | Time |
| 12338 | 13/08/2026 22:15:14 | 30.9  | 30.9  | 28.5  | 31.9  | 67.3  | 227.2  | 0.04  | 4.6  | -76  | 22:15 |
| 12337 | 13/08/2026 22:10:31 | 30.9  | 30.9  | 28.8  | 31.7  | 67.4  | 226.9  | 0.04  | 4.6  | -77  | 22:10 |
| 12336 | 13/08/2026 22:05:44 | 30.9  | 31.0  | 28.9  | 31.8  | 67.3  | 227.8  | 0.04  | 4.6  | -75  | 22:05 |
| 12335 | 13/08/2026 22:00:57 | 30.9  | 31.0  | 29.0  | 32.1  | 67.4  | 231.4  | 0.04  | 4.6  | -76  | 22:00 |
| 12334 | 13/08/2026 21:56:13 | 31.0  | 31.1  | 29.1  | 32.0  | 67.3  | 229.4  | 0.04  | 4.6  | -78  | 21:56 |
| 12333 | 13/08/2026 21:51:30 | 31.0  | 31.1  | 29.1  | 32.0  | 67.3  | 227.3  | 0.04  | 4.6  | -76  | 21:51 |
| 12332 | 13/08/2026 21:46:47 | 31.0  | 31.1  | 29.1  | 32.0  | 67.4  | 229.1  | 0.04  | 4.6  | -75  | 21:46 |
| 12331 | 13/08/2026 21:42:03 | 31.1  | 31.1  | 29.0  | 32.0  | 67.3  | 229.7  | 0.04  | 4.6  | -76  | 21:42 |
| 12330 | 13/08/2026 21:37:20 | 31.1  | 31.1  | 29.0  | 32.1  | 67.3  | 229.4  | 0.04  | 4.6  | -75  | 21:37 |
| 12329 | 13/08/2026 21:32:37 | 31.1  | 31.1  | 29.0  | 32.1  | 67.2  | 229.4  | 0.04  | 4.6  | -74  | 21:32 |
| 12328 | 13/08/2026 21:27:54 | 31.1  | 31.1  | 29.0  | 32.1  | 67.1  | 226.2  | 0.04  | 4.6  | -76  | 21:27 |
| 12327 | 13/08/2026 21:23:10 | 31.1  | 31.2  | 29.1  | 32.1  | 67.2  | 228.4  | 0.04  | 4.6  | -76  | 21:23 |
| 12326 | 13/08/2026 21:18:27 | 31.2  | 31.2  | 29.2  | 32.1  | 67.1  | 227.0  | 0.04  | 4.6  | -78  | 21:18 |
| 12325 | 13/08/2026 21:13:44 | 31.2  | 31.2  | 29.3  | 32.2  | 67.2  | 228.4  | 0.04  | 4.6  | -76  | 21:13 |
| 12324 | 13/08/2026 21:09:01 | 31.2  | 31.2  | 29.3  | 32.3  | 67.1  | 225.4  | 0.04  | 4.6  | -78  | 21:09 |
| 12323 | 13/08/2026 21:04:17 | 31.2  | 31.2  | 29.4  | 32.2  | 67.2  | 229.6  | 0.04  | 4.6  | -76  | 21:04 |
| 12322 | 13/08/2026 20:59:34 | 31.2  | 31.3  | 29.6  | 32.2  | 67.1  | 228.0  | 0.04  | 4.6  | -77  | 20:59 |
| 12321 | 13/08/2026 20:54:50 | 31.3  | 31.3  | 29.5  | 32.3  | 67.2  | 227.3  | 0.04  | 4.6  | -80  | 20:54 |
| 12320 | 13/08/2026 20:50:07 | 31.3  | 31.3  | 29.5  | 32.4  | 67.1  | 227.7  | 0.04  | 4.6  | -78  | 20:50 |
| 12319 | 13/08/2026 20:45:23 | 31.3  | 31.4  | 29.6  | 32.3  | 67.1  | 225.3  | 0.04  | 4.6  | -76  | 20:45 |
| 12318 | 13/08/2026 20:40:40 | 31.4  | 31.4  | 29.7  | 32.3  | 67.1  | 227.3  | 0.04  | 4.6  | -77  | 20:40 |
| 12317 | 13/08/2026 20:35:57 | 31.4  | 31.4  | 29.7  | 32.5  | 67.1  | 227.7  | 0.04  | 4.6  | -77  | 20:35 |
| 12316 | 13/08/2026 20:31:14 | 31.4  | 31.4  | 29.9  | 32.5  | 67.2  | 225.5  | 0.04  | 4.6  | -78  | 20:31 |
| 12315 | 13/08/2026 20:26:31 | 31.4  | 31.4  | 29.9  | 32.4  | 67.0  | 227.1  | 0.04  | 4.6  | -75  | 20:26 |